Погода в Мигово

Украина / Черновицкая область     48°08′59″N   25°22′49″E
темп.,
°C
ветер,
м/с
пор.,
м/с
влажн.,
%
обл.,
%
осадки,
мм/ч
давл.,
гПа
погр.,
м
20 мая, пт
пт2000:00+10ююз22706 0.0 102516
03:00+9ююз22726 0.0 102517
06:00+9ююз227156 0.0 102425
09:00+16ююз2356100 0.0 1023210
12:00+23сз1338100 0.0 10211086
15:00+25ссз363264 0.0 10191685
18:00+21сз4948100 0.0 1019324
21:00+15ююз33579 0.0 101833
21 мая, сб
сб2100:00+13юз33635 0.0 101830
03:00+13ююз346770 0.0 101656
06:00+13ююз3468100 0.0 101458
09:00+21зюз41055100 0.0 1012563
12:00+25зсз51048100 0.0 10111744
15:00+20ссз71173100 0.4 1012606
18:00+17сз71271100 0.4 1013834
21:00+16сз51162100 0.4 1013921
22 мая, вс
вс2200:00+14сз31065100 0.0 1014702
03:00+13зсз2667100 0.0 1012274
06:00+10зсз25830 0.0 1011120
09:00+15сз8136238 0.0 10111732
12:00+16сз10145337 0.1 10101834
15:00+15ссз10145564 0.1 10101549
18:00+14сз7136265 0.0 10111437
21:00+12сз511666 0.0 1011818
23 мая, пн
пн2300:00+10зсз51275100 0.0 1012642
03:00+9сз51183100 0.1 1011523
06:00+10сз51181100 0.3 1012778
09:00+9сз6109399 0.7 1013742
12:00+9сз5895100 0.9 1014636
15:00+9сз4692100 1.6 1015562
18:00+10зсз358983 0.4 1015404
21:00+7зюз22935 0.4 101512
24 мая, вт
вт2400:00+6ююз22912 0.0 101614
03:00+5ююз22900 0.0 101714
06:00+5ю22900 0.0 101727
09:00+12юв46705 0.0 1016571
12:00+16вюв66525 0.0 10161247
15:00+18вюв6649100 0.0 10151385
18:00+18вюв5757100 0.0 10151011
21:00+12юв3872100 0.0 1016148